Curtin, Australia

4:56 PM AWST on June 26, 2017 (GMT +0800)
Curtin

Weather History for YCIN - July, 2013

Change the Weather History Date:

Thursday, July 11, 2013

  Actual Average Record
Temperature  
Mean Temperature 76 °F -  
Max Temperature 94 °F - - ()
Min Temperature 59 °F - - ()
Cooling Degree Days 12    
Growing Degree Days 26 (Base 50)    
Moisture  
Dew Point 58 °F    
Average Humidity 55    
Maximum Humidity 88    
Minimum Humidity 17    
Precipitation  
Precipitation 0.00 in - - ()
Sea Level Pressure  
Sea Level Pressure 29.93 in    
Wind  
Wind Speed 3 mph ()    
Max Wind Speed 8 mph    
Max Gust Speed -    
T = Trace of Precipitation, MM = Missing Value Source: Averaged Metar Reports

Daily Weather History Graph

Daily Weather History Graph

Search for Another Location

Airport or City:

Trip Planner

Search our weather history database for the weather conditions in past years. The results will help you decide how hot, cold, wet, or windy it might be!

Date:

Astronomy

Jul. 11, 2013 Rise Set
Actual Time 6:15 AM AWST 5:24 PM AWST
Civil Twilight 5:52 AM AWST 5:47 PM AWST
Nautical Twilight 5:25 AM AWST 6:14 PM AWST
Astronomical Twilight 4:59 AM AWST 6:41 PM AWST
Moon 8:00 AM AWST (7/11) 7:56 PM AWST (7/11)
Length of Visible Light 11h 55m
Length of Day
11h 08m
Waxing Crescent, 7% of the Moon is Illuminated
Jul 11
Waxing Crescent
Jul 16
First Quarter
Jul 23
Full
Jul 30
Last Quarter
Aug 7
New

Hourly Weather History & Observations

Time (AWST) Temp. Heat Index Dew Point Humidity Pressure Visibility Wind Dir Wind Speed Gust Speed Precip Events Conditions
12:00 AM 68 °F - 58 °F 63% 29.95 in - South 3.5 mph - -  
12:00 AM 68.0 °F - 59.0 °F 73% 29.95 in - South 3.5 mph - N/A   Unknown
1:00 AM 64.4 °F - 57.2 °F 77% 29.95 in - Calm Calm - N/A   Unknown
2:00 AM 64.4 °F - 57.2 °F 77% 29.95 in - South 4.6 mph - N/A   Unknown
3:00 AM 61 °F - 56 °F 77% 29.95 in - Calm Calm - -  
3:00 AM 60.8 °F - 55.4 °F 82% 29.95 in - Calm Calm - N/A   Unknown
4:00 AM 60.8 °F - 55.4 °F 82% 29.95 in - NNE 1.2 mph - N/A   Unknown
5:00 AM 60.8 °F - 55.4 °F 82% 29.95 in - Calm Calm - N/A   Unknown
6:00 AM 60 °F - 55 °F 79% 29.97 in - NNE 4.6 mph - -  
6:00 AM 60.8 °F - 55.4 °F 82% 29.98 in - NNE 4.6 mph - N/A   Unknown
7:00 AM 62.6 °F - 59.0 °F 88% 29.98 in - Calm Calm - N/A   Unknown
8:00 AM 77.0 °F - 59.0 °F 54% 29.98 in - Calm Calm - N/A   Unknown
9:00 AM 82 °F - 60 °F 36% 29.99 in - West 4.6 mph - -  
9:00 AM 82.4 °F 82.5 °F 59.0 °F 45% 29.98 in - West 4.6 mph - N/A   Unknown
10:00 AM 84.2 °F 84.4 °F 60.8 °F 45% 29.98 in - SW 4.6 mph - N/A   Unknown
11:00 AM 93 °F - 59 °F 22% 29.92 in - ENE 6.9 mph - -  
11:00 AM 91.4 °F 89.9 °F 57.2 °F 31% 29.95 in - ENE 8.1 mph - N/A   Unknown
12:00 PM 93 °F - 59 °F 22% 29.92 in - ENE 6.9 mph - -  
12:00 PM 93.2 °F 92.6 °F 59.0 °F 32% 29.92 in - ENE 6.9 mph - N/A   Unknown
1:00 PM 91.4 °F 90.7 °F 59.0 °F 34% 29.89 in - NE 5.8 mph - N/A   Unknown
2:00 PM 93.2 °F 91.3 °F 55.4 °F 28% 29.86 in - ENE 4.6 mph - N/A   Unknown
3:00 PM 92 °F - 53 °F 17% 29.86 in - North 4.6 mph - -  
3:00 PM 93.2 °F - 51.8 °F 24% 29.86 in - North 4.6 mph - N/A   Unknown
4:00 PM 93.2 °F 91.3 °F 55.4 °F 28% 29.86 in - ENE 3.5 mph - N/A   Unknown
5:00 PM 84.2 °F 83.8 °F 59.0 °F 42% 29.89 in - WNW 4.6 mph - N/A   Unknown
6:00 PM 78 °F - 59 °F 41% 29.90 in - WNW 3.5 mph - -  
6:00 PM 78.8 °F - 59.0 °F 51% 29.89 in - WNW 3.5 mph - N/A   Unknown
7:00 PM 71.6 °F - 57.2 °F 60% 29.92 in - Calm Calm - N/A   Unknown
8:00 PM 69.8 °F - 59.0 °F 68% 29.92 in - West 4.6 mph - N/A   Unknown
9:00 PM 68 °F - 59 °F 64% 29.94 in - WSW 4.6 mph - -  
9:00 PM 68.0 °F - 59.0 °F 73% 29.95 in - WSW 4.6 mph - N/A   Unknown
10:00 PM 71.6 °F - 59.0 °F 64% 29.95 in - SSW 5.8 mph - N/A   Unknown
11:00 PM 69.8 °F - 59.0 °F 68% 29.95 in - SSW 4.6 mph - N/A   Unknown